Other Public Products
Issued by NWS Grand Forks, ND

Home | Current Version | Previous Version | Text Only | Print | Product List | Glossary Off
Versions: 1 2 3 4 5 6 7 8 9 10 11 12 13 14 15 16 17 18 19 20 21 22 23 24 25 26 27 28 29 30 31 32 33 34 35 36 37 38 39 40 41 42 43 44 45 46 47 48 49 50

000
FPUS83 KFGF 292231
OPUFGF
PRAIRIE TO PINES WEATHER ROUNDUP
NATIONAL WEATHER SERVICE EASTERN NORTH DAKOTA/GRAND FORKS ND
500 PM CDT SAT AUG 29 2015

 **SATELLITE DATA USED TO AUGMENT SKY COVER AT AUTOMATED STATIONS**
 *****  WEATHER ACROSS EASTERN NORTH DAKOTA  *****

CITY           SKY/WX    TMP DP  RH WIND       PRES   REMARKS
GRAND FORKS    PTSUNNY   80  69  69 S13       29.84F
GRAND FORKS AF PTSUNNY   79  69  72 S8        29.86S
GRAND CITY NWS   N/A     79 N/A N/A S12         N/A
BUXTON         NOT AVBL
DEVILS LAKE    PTSUNNY   82  64  54 S8        29.84F
FARGO          SUNNY     83  68  60 S14       29.88F
WAHPETON ARPT  MOCLDY    81  64  57 S10       29.92S
$$

 *****  WEATHER ACROSS CENTRAL AND WESTERN NORTH DAKOTA  *****

CITY           SKY/WX    TMP DP  RH WIND       PRES   REMARKS
JAMESTOWN      MOSUNNY   84  70  62 S7        29.88F
BISMARCK       PTSUNNY   92  56  29 SE14      29.86F HAZE    HX  90
MINOT          PTSUNNY   94  48  20 S13       29.81F HAZE    HX  90
MINOT AFB      MOSUNNY   95  50  21 S8        29.79F HX  91
GARRISON         N/A     93  54  26 S12       29.83F HX  91
WILLISTON      PTSUNNY   92  47  21 CALM      29.81F HAZE
DICKINSON      MOSUNNY   98  41  14 SW10      29.85F HX  93
HETTINGER      SUNNY     97  44  16 S14       29.90F HX  93
$$

 *****  OTHER OBSERVATIONS NORTHEAST NORTH DAKOTA  *****

CITY           SKY/WX    TMP DP  RH WIND       PRES   REMARKS
WALHALLA       FAIR      81  79  94 MISG      29.80F
LANGDON        FAIR      86  59  39 S14G20    29.84F
CAVALIER       FAIR      82  72  69 S10       29.81F
GRAFTON        FAIR      81  72  74 S12       29.83F
CANDO          FAIR      84  61  45 S10       29.84F
FORT TOTTEN      N/A     81  67  61 S7        29.95S
ROLLA            N/A     84  54  34 S16G24    29.83F
RUGBY          FAIR      88  57  35 S10       29.82F HAZE
 ***** THE ABOVE OBSERVATIONS ARE NON NWS ARE NOT QUALITY
        CONTROLLED AND MAY MIS-REPORT RAIN FOR SNOW...
$$

 *****  OTHER OBSERVATIONS SOUTHEAST NORTH DAKOTA *****

CITY           SKY/WX    TMP DP  RH WIND       PRES   REMARKS
COOPERSTOWN    NOT AVBL
VALLEY CITY    FAIR      81  73  78 S12       29.89F
OAKES            N/A     82  75  78 S9        29.90F
GWINNER        FAIR      82  73  74 S6        29.91S
SHEYENNE NWR     N/A     84  69  60 SW8       29.95S
BUFFALO        NOT AVBL
WYNDMERE         N/A     82  66  57 S10         N/A
 ***** THE ABOVE OBSERVATIONS ARE NON NWS ARE NOT QUALITY
       CONTROLLED AND MAY MIS-REPORT RAIN FOR SNOW...
$$

  *****  WEATHER ACROSS NORTHERN MINNESOTA  *****

CITY           SKY/WX    TMP DP  RH WIND       PRES   REMARKS
FLAG ISLAND    CLOUDY    70  64  83 S12       29.88F
WARROAD        CLOUDY    72  68  88 S7        29.88F
ROSEAU         PTSUNNY   75  70  83 SE8       29.87F
HALLOCK        CLOUDY    79  70  73 S15       29.83F
THF RVR FALLS  MOSUNNY  N/A N/A N/A S15       29.86F
HALSTAD        NOT AVBL
FOSSTON        PTSUNNY   79  64  61 S12       29.92F
BAUDETTE       CLOUDY    72  66  81 S8        29.91F
WASKISH        CLOUDY    75  68  78 SE3       29.92F
CROOKSTON      MOSUNNY   81  68  65 SW14G20   29.87F
$$
  *****  WEATHER ACROSS CENTRAL AND WEST MINNESOTA  *****

CITY           SKY/WX    TMP DP  RH WIND       PRES   REMARKS
BEMIDJI        PTSUNNY   75  65  72 S8        29.94F
PARK RAPIDS    PTSUNNY   77  64  64 S12       29.97F
WADENA         PTSUNNY   73  63  68 S7        29.97F
DETROIT LAKES  PTSUNNY   77  64  65 S10       29.96S
MOORHEAD       SUNNY     81  68  65 S9        29.90S
FERGUS FALLS   PTSUNNY   75  64  69 S13       29.94S
ELBOW LAKE     FAIR      73  65  74 SE12      29.96F
MORRIS MN      PTSUNNY   75  64  69 SE9       29.96F
STAPLES        PTSUNNY   72  61  68 S8        29.99S
WHEATON        PTSUNNY   75  66  73 SE13      29.95S
$$
  *****  WEATHER ELSEWHERE ACROSS MINNESOTA  *****

CITY           SKY/WX    TMP DP  RH WIND       PRES   REMARKS
DULUTH         PTSUNNY   72  61  68 SW8       30.01S
INTRNTL FALLS  CLOUDY    71  65  81 VRB3      29.94F
ELY            CLOUDY    72  64  78 SW6       29.99S
CLOQUET        PTSUNNY   73  61  64 S9        30.00F
BRAINERD       PTSUNNY   73  62  68 S8        30.00S
HIBBING        CLOUDY    74  63  68 S6        29.98F
ALEXANDRIA     PTSUNNY   73  62  68 S12       30.00F
SAINT CLOUD    MOSUNNY   73  63  70 S10       30.01F
MINNEAPOLIS    PTSUNNY   74  61  63 S5        30.03S
$$

  *****  WEATHER ACROSS SOUTH DAKOTA  *****

CITY           SKY/WX    TMP DP  RH WIND       PRES   REMARKS
SIOUX FALLS    CLOUDY    73  63  70 S9        30.01F
BROOKINGS      MOSUNNY   75  64  69 S14       30.01F
WATERTOWN      SUNNY     79  66  64 S10       29.97F
HURON          SUNNY     83  70  64 S14G22    29.93F
SISSETON         N/A     84  66  54 SW10      29.91F
ABERDEEN       SUNNY     84  72  67 S9        29.91F
MITCHELL       SUNNY     81  69  67 S12       29.97F
PIERRE         SUNNY     94  61  33 S13       29.89F HX  94
MOBRIDGE       SUNNY     89  66  46 S12       29.87F HX  91
RAPID CITY     SUNNY     93  51  23 S12       29.96F HX  90
$$

  *****  SOME WEATHER IN NEARBY STATES *****

CITY           SKY/WX    TMP DP  RH WIND       PRES   REMARKS
GLASGOW MT     HAZE      91  41  17 E13       29.78F VSB 1/2
GREAT FALLS MT CLOUDY    91  40  16 VRB3      29.75F HAZE
CHEYENNE WY    SUNNY     84  35  17 S6G17     30.20F
SCOTTSBLUFF NE SUNNY     92  43  18 S9        30.05F
OMAHA NE       CLOUDY    72  63  73 CALM      30.04F
DES MOINES IA  CLOUDY    72  63  73 NW8       30.03S
DAVENPORT IA   CLOUDY    72  67  84 N6        30.01S
CHICAGO IL     LGT RAIN  69  66  90 N3        30.00F
EAU CLAIRE WI  SUNNY     71  60  68 SW6       30.04F
LA CROSSE WI   CLOUDY    72  63  73 CALM      30.04S
$$

  *****  SOME NATIONAL WEATHER *****

CITY           SKY/WX    TMP DP  RH WIND       PRES   REMARKS
LA GUARDIA NY  MOSUNNY   81  59  47 S17       30.10S
RALEIGH NC     PTSUNNY   83  58  42 SE6       30.13F
ATLANTA GA     CLOUDY    80  64  58 SE8       30.13S
NEW ORLEANS LA MOSUNNY   88  65  46 S8        29.98F HX  90
OKLAHOMA CITY  MOSUNNY   89  64  43 VRB7      29.96F HX  90
ALBUQUERQUE NM PTSUNNY   80  49  33 SE23      30.21S
SALT LAKE CITY CLOUDY    95  38  13 SE17G24   29.96F HX  90
LOS ANGELES CA MOSUNNY   81  67  62 W14       29.87F
BOISE ID       CLOUDY    93  39  15 SW12      29.81F
SEATTLE WA     PTSUNNY   71  55  56 SW22G35   29.75R
$$

*** WEATHER ACROSS MANITOBA...SASKATCHEWAN AND ONTARIO ***
                ***ONTARIO***

CITY           SKY/WX    TMP DP  RH WIND       PRES   REMARKS
GERALDTON      PTSUNNY   72  64  78 S6        29.94F FOG
THUNDER BAY    PTSUNNY   77  64  65 SW3       29.95F
SIOUX LOOKOUT  SUNNY     79  59  50 S6        29.91F
TORONTO        CLOUDY    73  59  60 SE6       30.09S
BIG TROUT LK   SUNNY     79  57  47 W7        29.74S
PICKLE LAKE    MOSUNNY   81  57  44 SW12      29.87F
DRYDEN         SUNNY     77  63  61 S9        29.92S
KENORA         CLOUDY    72  66  83 S12G17    29.90F
$$
                *** MANITOBA***

CITY           SKY/WX    TMP DP  RH WIND       PRES   REMARKS
BRANDON        MOSUNNY   88  59  37 SW13      29.75F HAZE
DAUPHIN        SUNNY     82  63  51 SW9       29.69S HAZE
ISLAND LAKE    CLOUDY    75  59  57 S7        29.70F
PILOT MOUND      N/A     86  55  35 S15         N/A
THE PAS        PTSUNNY   81  57  44 W13       29.56R
THOMPSON       CLOUDY    70  63  78 NE7       29.59F
WINNIPEG       CLOUDY    73  68  83 S20       29.80F
LYNN LAKE      PTSUNNY   61  55  82 MISG      29.69R
CHURCHILL      CLOUDY    50  46  87 NE18      29.74R FOG
GILLAM         LGT RAIN  64  59  82 NE5       29.67F
$$
                ***SASKATCHEWAN***

CITY           SKY/WX    TMP DP  RH WIND       PRES   REMARKS
ESTEVAN        CLOUDY    86  50  28 SW5       29.81S SMOKE
KINDERSLEY     PTSUNNY   84  45  24 S15       29.73F
LLOYDMINSTER   PTSUNNY   77  46  33 SE7       29.69F
PRINCE ALBERT  PTSUNNY   81  59  47 NW13      29.66S
REGINA         PTSUNNY   81  55  41 NW8       29.78F SMOKE


USA.gov is the U.S. government's official web portal to all federal, state and local government web resources and services.